CW7986 Weather Reports


Display with metric or nautical units.
time (UTC)temp
F
wind
direction
speed
MPH
gust
MPH
rain 1hr
in
rain 24hr
in
rain mn
in
humidity
%
barometer
mb
20260504050503 68 53 1.0 5.0 0.00 0.11 0.00 84 1015.2
20260504050002 68 49 1.0 5.0 0.00 0.11 0.00 84 1014.9
20260504045523 68 46 1.0 3.0 0.00 0.11 0.00 84 1014.8
20260504045002 68 46 1.0 3.0 0.00 0.11 0.00 84 1014.9
20260504044504 68 46 1.0 3.0 0.00 0.11 0.00 84 1015.2
20260504044003 69 46 1.0 3.0 0.00 0.11 0.00 83 1015.3
20260504043502 69 46 1.0 3.0 0.00 0.11 0.00 83 1015.3
20260504043024 69 46 1.0 3.0 0.00 0.11 0.00 83 1015.3
20260504042503 69 46 1.0 2.0 0.00 0.11 0.00 83 1015.3
20260504042002 69 46 1.0 2.0 0.00 0.12 0.00 83 1015.3
20260504041502 69 46 1.0 3.0 0.00 0.12 0.00 83 1015.3
20260504041023 70 53 1.0 4.0 0.00 0.12 0.00 83 1015.3
20260504040503 70 61 1.0 4.0 0.00 0.12 0.00 83 1015.3
20260504040003 70 63 1.0 3.0 0.00 0.12 0.00 82 1015.4
20260504035502 70 58 2.0 5.0 0.00 0.12 0.12 82 1015.3
20260504035002 70 58 1.0 5.0 0.00 0.12 0.12 82 1015.3
20260504034502 70 68 1.0 3.0 0.00 0.12 0.12 82 1015.3
20260504034023 70 80 1.0 3.0 0.00 0.12 0.12 82 1015.3
20260504033502 70 100 0.0 2.0 0.00 0.12 0.12 82 1015.4
20260504033003 71 95 0.0 3.0 0.01 0.12 0.12 82 1015.5
20260504032503 71 88 0.0 3.0 0.01 0.13 0.12 81 1015.5
20260504032003 71 92 0.0 3.0 0.01 0.13 0.12 81 1015.5
20260504031502 71 92 1.0 4.0 0.01 0.13 0.12 81 1015.5
20260504031002 71 90 1.0 4.0 0.01 0.13 0.12 81 1015.4
20260504030503 71 88 1.0 4.0 0.01 0.13 0.12 81 1015.4
20260504030003 71 88 1.0 5.0 0.01 0.13 0.12 81 1015.3
20260504025503 71 92 1.0 5.0 0.01 0.13 0.12 81 1015.4
20260504025002 71 101 1.0 4.0 0.01 0.13 0.12 81 1015.4
20260504024502 71 125 1.0 3.0 0.01 0.13 0.12 81 1015.4
20260504024002 71 129 1.0 6.0 0.01 0.13 0.12 81 1015.4
20260504023502 71 116 1.0 6.0 0.01 0.14 0.12 80 1015.3
20260504023002 71 109 1.0 4.0 0.00 0.13 0.11 80 1015.3
20260504022502 71 105 1.0 4.0 0.00 0.13 0.11 81 1015.2
20260504022002 71 109 1.0 4.0 0.00 0.13 0.11 80 1015.3
20260504021503 71 107 1.0 5.0 0.00 0.13 0.11 80 1015.2
20260504021024 71 92 1.0 5.0 0.00 0.13 0.11 80 1015.2
20260504020502 71 88 1.0 4.0 0.00 0.13 0.11 80 1015.1
20260504020003 71 91 1.0 4.0 0.00 0.13 0.11 80 1014.9
20260504015502 72 109 1.0 3.0 0.00 0.13 0.11 80 1014.9
20260504015004 72 108 1.0 4.0 0.00 0.13 0.11 79 1014.9
20260504014502 72 102 1.0 4.0 0.00 0.13 0.11 79 1014.8
20260504014002 72 103 1.0 4.0 0.00 0.13 0.11 79 1014.9
20260504013502 72 107 1.0 3.0 0.00 0.14 0.11 79 1014.9
20260504013003 72 107 0.0 3.0 0.00 0.14 0.11 79 1014.8
20260504012502 72 107 0.0 2.0 0.00 0.14 0.11 78 1014.8
20260504012002 72 107 0.0 2.0 0.00 0.14 0.11 78 1014.8
20260504011502 72 107 0.0 2.0 0.00 0.14 0.11 78 1014.7
20260504011003 73 107 0.0 2.0 0.00 0.14 0.11 77 1014.8
20260504010502 73 107 0.0 2.0 0.00 0.14 0.11 77 1014.8
20260504010003 73 107 0.0 1.0 0.00 0.15 0.11 77 1014.8
20260504005502 73 107 0.0 2.0 0.00 0.15 0.11 77 1014.5
20260504005002 73 107 0.0 2.0 0.00 0.15 0.11 76 1014.5
20260504004503 73 107 0.0 2.0 0.00 0.15 0.11 76 1014.5
20260504004002 73 102 0.0 3.0 0.00 0.15 0.11 76 1014.5
20260504003503 73 93 1.0 4.0 0.00 0.15 0.11 76 1014.3
20260504003002 74 100 1.0 4.0 0.00 0.15 0.11 75 1014.3
20260504002502 74 105 1.0 4.0 0.00 0.16 0.11 75 1014.3
20260504002002 74 104 1.0 3.0 0.00 0.16 0.11 75 1014.3
20260504001524 74 97 1.0 3.0 0.00 0.16 0.11 75 1014.3
20260504001003 74 91 1.0 4.0 0.00 0.16 0.11 74 1014.3
20260504000502 74 88 1.0 4.0 0.00 0.16 0.11 74 1014.3
20260504000003 75 83 1.0 5.0 0.00 0.16 0.11 74 1014.3
20260503235502 75 89 1.0 5.0 0.00 0.17 0.11 74 1014.3
20260503235003 75 91 1.0 5.0 0.00 0.17 0.11 74 1014.0
20260503234523 75 86 1.0 4.0 0.00 0.17 0.11 74 1014.1
20260503234002 75 74 1.0 4.0 0.00 0.17 0.11 74 1014.1
20260503233503 75 71 2.0 5.0 0.00 0.17 0.11 73 1014.1
20260503233002 75 70 2.0 5.0 0.00 0.18 0.11 73 1014.0
20260503232503 75 79 2.0 6.0 0.01 0.18 0.11 73 1014.0
20260503232023 75 81 2.0 8.0 0.01 0.18 0.11 73 1014.0
20260503231502 75 82 3.0 8.0 0.01 0.19 0.11 73 1013.9
20260503231002 76 86 2.0 6.0 0.01 0.19 0.11 72 1013.9
20260503230502 76 83 2.0 6.0 0.01 0.19 0.11 73 1013.8
20260503230003 76 76 2.0 6.0 0.01 0.19 0.11 73 1013.8
20260503225503 76 86 2.0 7.0 0.01 0.19 0.11 72 1013.8
20260503225003 76 98 2.0 7.0 0.01 0.20 0.11 72 1013.8
20260503224523 76 92 3.0 7.0 0.01 0.20 0.11 72 1013.7
20260503224003 76 87 3.0 7.0 0.01 0.21 0.11 72 1013.8
20260503223502 76 89 3.0 7.0 0.01 0.21 0.11 72 1013.8
20260503223002 76 83 3.0 7.0 0.01 0.21 0.11 72 1013.8
20260503222503 76 76 3.0 7.0 0.00 0.21 0.10 72 1013.7
20260503222002 76 86 3.0 6.0 0.00 0.21 0.10 72 1013.7
20260503221502 76 73 4.0 10.0 0.00 0.22 0.10 72 1013.7
20260503221003 76 64 4.0 10.0 0.00 0.22 0.10 72 1013.7
20260503220502 76 71 4.0 10.0 0.00 0.22 0.10 71 1013.7
20260503220023 76 72 4.0 10.0 0.00 0.23 0.10 71 1013.7
20260503215523 77 74 4.0 10.0 0.00 0.23 0.10 71 1013.7
20260503215002 77 79 3.0 9.0 0.00 0.24 0.10 71 1013.7
20260503214503 77 77 3.0 9.0 0.00 0.25 0.10 72 1013.7
20260503214003 77 81 3.0 9.0 0.00 0.25 0.10 72 1013.7
20260503213523 77 85 3.0 6.0 0.00 0.26 0.10 72 1013.7
20260503213002 76 69 3.0 7.0 0.00 0.26 0.10 72 1013.8
20260503212502 76 62 4.0 7.0 0.00 0.27 0.10 72 1013.7
20260503212002 76 72 4.0 11.0 0.00 0.28 0.10 72 1013.9
20260503211503 76 72 4.0 11.0 0.00 0.28 0.10 71 1013.9
20260503211003 76 70 4.0 10.0 0.00 0.29 0.10 71 1013.8
20260503210502 77 76 3.0 6.0 0.00 0.30 0.10 71 1013.8
20260503210003 77 72 3.0 7.0 0.01 0.31 0.10 71 1013.8
20260503205523 77 78 3.0 9.0 0.01 0.31 0.10 71 1013.9
20260503205002 77 82 4.0 9.0 0.01 0.31 0.10 72 1014.1
20260503204502 76 76 3.0 9.0 0.01 0.31 0.10 72 1014.2
20260503204003 77 67 3.0 8.0 0.01 0.31 0.10 72 1014.3
20260503203503 76 60 3.0 7.0 0.01 0.31 0.10 72 1014.3
20260503203003 77 60 3.0 10.0 0.01 0.31 0.10 72 1014.3
20260503202502 76 62 5.0 12.0 0.01 0.31 0.10 72 1014.3
20260503202002 76 66 5.0 12.0 0.01 0.31 0.10 72 1014.3
20260503201503 76 65 5.0 11.0 0.01 0.31 0.10 72 1014.4
20260503201003 76 68 4.0 11.0 0.01 0.31 0.10 72 1014.4
20260503200503 76 70 4.0 10.0 0.01 0.31 0.10 72 1014.5
20260503200003 76 70 4.0 11.0 0.00 0.30 0.09 72 1014.6
20260503195502 76 76 3.0 11.0 0.00 0.30 0.09 72 1014.6
20260503195024 76 66 4.0 10.0 0.00 0.30 0.09 72 1014.5
20260503194502 75 57 4.0 10.0 0.00 0.30 0.09 72 1014.6
20260503194002 75 59 4.0 10.0 0.00 0.30 0.09 72 1014.6
20260503193502 76 70 4.0 10.0 0.00 0.30 0.09 72 1014.7
20260503193003 77 76 4.0 10.0 0.00 0.30 0.09 72 1014.7
20260503192504 76 66 5.0 11.0 0.00 0.30 0.09 72 1014.7
20260503192002 76 65 4.0 11.0 0.00 0.30 0.09 72 1014.7
20260503191503 75 65 5.0 14.0 0.00 0.30 0.09 73 1014.8
20260503191002 75 65 6.0 14.0 0.00 0.30 0.09 72 1014.8
20260503190502 75 65 6.0 13.0 0.00 0.30 0.09 72 1014.9
20260503190003 76 71 6.0 13.0 0.00 0.30 0.09 71 1014.9
20260503185502 77 71 5.0 13.0 0.00 0.30 0.09 71 1015.0
20260503185003 76 69 5.0 13.0 0.00 0.30 0.09 72 1015.2
20260503184509 76 72 6.0 12.0 0.00 0.30 0.09 72 1015.3
20260503184002 74 70 6.0 12.0 0.00 0.30 0.09 73 1015.3
20260503183503 74 63 6.0 13.0 0.00 0.30 0.09 74 1015.5
20260503183003 74 63 6.0 15.0 0.01 0.30 0.09 72 1015.7
20260503182503 74 69 5.0 15.0 0.01 0.30 0.09 73 1015.6
20260503182023 74 67 6.0 14.0 0.01 0.30 0.09 73 1015.6
20260503181504 74 64 7.0 15.0 0.01 0.30 0.09 74 1015.7
20260503181003 74 64 7.0 15.0 0.01 0.30 0.09 73 1015.7
20260503180503 73 63 8.0 16.0 0.01 0.30 0.09 74 1015.8
20260503180003 72 62 7.0 16.0 0.01 0.30 0.09 75 1015.8
20260503175502 72 63 6.0 14.0 0.01 0.30 0.09 76 1015.8
20260503175002 72 63 6.0 14.0 0.01 0.30 0.09 76 1015.9
20260503174523 72 64 5.0 13.0 0.01 0.30 0.09 77 1015.9
20260503174002 72 62 5.0 14.0 0.01 0.30 0.09 78 1015.9
20260503173502 71 63 4.0 14.0 0.01 0.30 0.09 77 1016.0
20260503173002 71 65 5.0 13.0 0.00 0.29 0.08 78 1015.9
20260503172502 71 62 5.0 13.0 0.00 0.29 0.08 77 1016.0
20260503172024 71 64 5.0 12.0 0.00 0.29 0.08 77 1016.1
20260503171502 71 67 6.0 11.0 0.00 0.29 0.08 77 1016.2
20260503171002 71 67 6.0 13.0 0.00 0.29 0.08 77 1016.3
20260503170524 71 69 6.0 13.0 0.00 0.29 0.08 77 1016.3
20260503151002 70 74 7.0 16.0 0.00 0.28 0.07 79 1016.5
20260503150502 70 67 7.0 16.0 0.00 0.28 0.07 79 1016.4
20260503131002 68 67 5.0 11.0 0.01 0.28 0.07 86 1015.3
20260503130502 68 67 5.0 13.0 0.01 0.28 0.07 86 1015.3
20260503110502 67 61 5.0 12.0 0.00 0.26 0.05 87 1014.0
20260503090503 69 43 3.0 7.0 0.01 0.26 0.05 88 1013.1
20260503081502 71 30 1.0 5.0 0.00 0.25 0.04 88 1012.3
20260503081003 71 36 1.0 5.0 0.00 0.25 0.04 87 1012.3
20260503080503 71 46 2.0 6.0 0.01 0.25 0.04 88 1012.2
20260503072502 72 42 2.0 7.0 0.01 0.25 0.04 86 1012.1
20260503072023 72 18 2.0 7.0 0.01 0.25 0.04 86 1012.2
20260503071504 72 321 1.0 10.0 0.01 0.25 0.04 86 1012.2
20260503071002 73 313 2.0 10.0 0.02 0.25 0.04 86 1012.2
20260503070502 73 312 3.0 7.0 0.01 0.24 0.03 86 1012.2